Location: *
(37.5724°S, 58.0067°E)
Time: 10:51:01
(UTC+00:00)

Lacrosse 5 - Pass Details

Date: 26 January 2021
Orbit: 715 x 724 km, 57.0° (Epoch: 22 February)

Event Time Altitude Azimuth Distance (km) Brightness Sun altitude
Rises 23:06:35 0° 214° (SW) 3,170 5.4 -21.7°
Reaches altitude 10° 23:10:45 10° 182° (S) 2,245 5.0 -21.2°
Maximum altitude 23:12:36 12° 161° (SSE) 2,121 5.2 -20.9°
Drops below altitude 10° 23:14:28 10° 140° (SE) 2,241 5.6 -20.7°
Sets 23:18:36 0° 108° (ESE) 3,157 6.3 -20.1°
